Zurück zum Katalog

STARLINK-30506

AktivKommunikationVLEO
NORAD 58072·PAYLOAD·🇺🇸 United States

Gestartet Oct 13, 2023 von Cape Canaveral Space Force Station

Loading…

Nächste Überflüge (nächste 24 Stunden)

TLE

AktuellSource: CelesTrak SupGP

Epoche: Sep 14, 2026, 22:20 UTC

1 58072C 23158X   26257.93104167  .00034155  00000+0  12370-2 0  2573
2 58072  43.0014  38.4583 0001569 272.8353 321.7693 15.27563567    17

Verfolge STARLINK-30506 in Echtzeit mit AllMySat

Download on the App Store